Location: Bli��� Lhota
(48.7570°N, 14.0120°E)
Time: 06:17:09
(UTC+00:00)

Cosmos 1626 - Pass Details

Date: 18 September 2020
Orbit: 490 x 495 km, 82.5° (Epoch: 22 October)

Event Time Altitude Azimuth Distance (km) Brightness Sun altitude
Rises 18:38:12 0° 3° (N) 2,590 6.0 -15.1°
Reaches altitude 10° 18:40:51 10° 23° (NNE) 1,700 4.8 -15.5°
Enters shadow 18:42:57 18° 57° (ENE) 1,289 3.9 -15.8°
